Theta_e
326 322 323 321 311 311 309 312 321 319 321 328 330 327 326 326 319 316 338 343 341 343 353 361 363 363 362 361 360 360 360 360 359 359 359 358 357 355 355 357 357 355 354 355 356 357 357 356 355
323 318 320 315 307 305 307 308 310 319 324 329 330 329 327 325 333 334 337 344 342 346 352 356 363 362 362 361 361 361 361 360 360 359 358 357 356 355 353 355 355 352 352 352 352 353 353 354 355
319 313 313 310 306 304 306 307 313 316 328 327 326 331 328 326 335 336 342 346 344 346 351 358 363 362 362 361 361 361 361 361 360 358 357 356 356 355 356 355 355 354 354 354 354 353 353 353 353
318 315 309 305 301 304 306 308 308 308 312 326 328 319 331 337 337 340 346 346 344 344 347 361 363 362 362 361 361 361 361 361 360 358 357 356 353 354 355 355 356 357 355 353 353 352 352 351 351
311 310 304 301 300 302 305 307 308 306 308 312 324 316 327 336 345 346 347 346 343 345 346 356 363 363 362 360 361 361 361 361 360 359 357 355 353 352 352 354 357 356 352 348 346 344 343 344 345
309 307 301 297 298 302 306 307 306 309 313 314 318 319 329 342 344 345 347 346 346 347 348 353 362 363 362 361 361 360 361 361 360 359 358 356 354 352 350 351 355 354 350 346 342 340 343 345 345
307 305 299 298 299 302 305 309 308 311 322 308 331 320 336 340 346 348 348 348 348 348 348 353 354 361 363 361 360 360 360 360 360 359 358 356 354 352 349 349 350 352 351 344 343 340 343 345 346
307 306 298 299 300 301 307 307 309 309 325 336 337 327 329 340 349 350 349 349 349 348 348 352 353 353 356 358 361 360 360 360 359 358 357 356 353 351 350 349 348 348 350 348 345 344 347 348 349
306 304 300 300 300 303 308 305 310 312 326 332 336 334 335 345 348 348 347 347 347 348 350 351 351 352 352 353 357 360 358 358 358 357 357 354 350 350 348 348 347 346 348 350 349 348 350 351 351
308 304 301 303 304 305 306 305 307 308 324 330 321 337 342 343 344 344 344 343 344 346 348 350 352 352 352 351 355 356 354 354 354 355 356 352 352 351 348 349 349 350 350 350 350 346 346 342 340
303 303 304 305 305 306 306 307 307 307 308 311 311 327 340 340 341 342 343 344 343 346 350 349 352 354 352 350 353 354 353 354 355 357 356 355 350 350 349 350 349 352 347 349 348 345 342 340 339
302 303 304 305 305 304 305 306 306 306 310 312 311 319 339 339 339 340 341 344 345 345 348 352 353 354 354 352 352 352 351 353 353 353 356 354 351 349 348 347 350 352 352 352 351 347 345 347 341
302 303 304 305 305 304 304 305 305 307 310 311 311 326 334 339 341 342 343 344 347 346 348 350 353 353 354 355 352 353 351 352 352 353 354 351 349 348 346 347 347 350 353 353 351 350 347 345 343
303 303 303 303 304 304 303 304 304 308 309 311 312 314 330 335 339 342 344 344 345 347 348 351 352 354 352 354 354 353 353 352 353 352 351 353 350 349 346 345 345 349 352 353 354 353 351 347 344
303 301 302 303 304 303 304 303 303 310 309 309 312 312 320 332 338 341 344 346 346 346 350 351 351 353 353 353 354 354 353 352 352 352 353 352 352 351 349 345 344 346 350 351 352 352 351 348 342
300 300 298 302 303 303 305 299 307 310 308 309 311 311 311 324 335 341 344 347 349 347 347 350 351 352 351 353 353 350 351 352 352 352 352 350 351 351 350 346 344 346 350 350 350 349 349 348 343
300 296 297 300 303 303 303 301 308 311 308 308 310 310 310 313 329 338 344 347 349 349 348 347 351 350 352 353 352 353 354 351 351 350 348 351 350 348 349 346 346 350 349 351 350 347 347 347 345
296 296 298 297 302 303 302 302 307 309 308 311 314 314 310 310 317 332 339 345 349 350 350 350 349 352 353 351 351 351 350 350 350 348 347 350 348 347 349 347 349 350 348 349 350 348 345 344 343
298 297 296 301 302 300 303 302 306 307 313 314 317 320 317 323 330 335 337 340 343 347 348 349 349 351 350 346 345 345 344 346 347 348 347 348 349 348 351 349 350 352 349 350 352 348 344 340 341
298 297 298 302 302 301 303 302 306 307 311 316 321 325 327 328 334 335 338 339 338 340 344 345 347 348 348 346 347 346 345 346 347 349 351 348 349 350 348 349 345 348 347 348 349 350 342 340 341
299 298 298 298 302 303 301 300 302 304 312 317 321 324 325 329 330 329 332 336 340 340 341 342 345 347 348 349 348 349 350 351 347 346 348 350 346 347 352 347 339 345 350 346 347 350 348 343 342
297 300 300 299 298 294 301 292 300 304 307 311 315 318 321 326 327 326 328 328 331 335 340 344 345 346 347 349 348 349 345 343 348 350 353 354 353 351 350 346 340 343 341 342 345 346 346 343 338
296 300 299 299 297 297 296 293 298 304 303 306 312 315 317 323 324 321 323 323 324 326 331 335 338 342 348 351 350 348 348 350 351 351 352 352 352 352 350 350 348 343 340 339 340 344 343 341 339
300 298 297 297 296 290 295 294 296 301 303 307 311 313 312 319 321 320 322 323 322 325 325 326 326 325 329 335 340 342 341 343 343 344 345 343 347 343 343 346 347 346 344 340 340 342 340 343 341
299 296 289 288 290 289 296 293 297 304 306 307 308 310 309 311 314 315 318 316 317 319 321 323 324 323 324 327 328 329 330 330 331 336 337 337 335 338 341 343 344 345 344 346 347 347 347 344 342
297 295 288 281 285 288 295 288 297 306 308 310 311 309 308 308 311 312 313 314 314 316 318 320 321 321 322 322 323 324 325 328 327 328 329 329 330 334 340 341 342 344 346 346 344 345 347 347 346
296 295 298 292 293 289 292 296 304 307 307 308 308 309 306 308 308 311 311 311 313 314 315 316 315 315 317 318 320 320 321 321 321 324 325 325 328 328 334 336 338 340 342 345 345 343 343 345 347
299 301 293 296 284 282 288 291 293 301 305 306 306 307 307 309 310 309 309 310 312 315 316 315 315 313 315 315 315 315 317 319 320 321 322 322 325 328 331 331 332 336 339 341 345 345 342 341 344
297 296 297 296 294 287 283 289 303 303 307 307 306 307 309 308 309 311 311 311 311 312 313 314 315 315 313 314 314 315 315 318 319 320 321 322 325 326 327 329 329 330 333 339 340 341 342 343 340
299 296 296 290 287 291 290 288 302 306 309 309 308 308 310 310 310 310 312 312 313 311 311 311 312 311 313 313 314 311 314 315 315 317 319 321 323 326 327 328 328 327 328 332 335 335 338 338 340
Wind_Speed
1 1 2 2 4 2 1 3 3 4 4 2 6 4 5 3 3 1 3 12 22 23 20 20 18 18 17 17 15 15 14 14 13 14 13 12 11 11 11 10 9 9 9 10 11 10 10 9 9
1 1 1 1 4 4 4 2 3 5 6 3 4 4 5 2 2 6 13 12 23 22 19 19 19 17 18 18 16 14 14 14 13 13 13 12 11 11 11 9 9 9 9 8 8 7 7 7 7
2 3 2 1 1 3 1 3 3 7 1 2 0 2 1 0 2 9 6 18 21 20 19 17 19 18 18 18 16 14 14 14 13 13 13 12 10 9 9 8 8 8 8 8 8 7 6 4 4
1 2 4 2 3 1 4 7 7 11 11 9 3 3 2 2 0 5 18 20 20 19 18 18 17 17 16 18 16 14 13 12 12 12 11 11 10 9 8 8 7 8 7 6 6 6 6 4 3
3 1 2 1 2 4 5 8 13 15 8 8 3 3 1 3 7 11 20 19 21 17 16 19 17 16 16 16 16 15 13 11 10 11 11 10 9 8 7 7 7 7 7 6 5 4 3 3 3
3 1 2 4 3 4 4 4 9 8 9 3 4 4 2 3 8 11 16 18 18 18 16 16 16 16 15 15 14 13 12 11 10 9 9 10 9 7 7 6 6 5 5 5 3 3 3 3 4
3 1 2 2 1 3 2 11 8 10 4 5 2 5 3 5 8 12 13 14 15 16 15 15 16 15 14 13 13 11 10 10 10 9 8 8 8 7 5 5 4 3 3 2 2 1 2 3 5
3 2 4 2 1 1 7 14 8 5 4 4 1 1 3 6 11 13 14 12 12 14 15 14 14 15 15 13 14 13 11 10 9 8 7 6 5 5 6 5 4 3 2 1 1 1 3 4 5
2 2 3 2 2 6 9 9 6 7 1 2 2 3 3 16 16 15 15 14 14 12 13 14 15 14 13 13 13 14 15 13 11 10 8 8 5 5 5 4 2 1 1 1 0 1 4 4 6
1 1 4 1 2 6 9 5 11 6 3 4 2 7 10 15 16 16 16 16 18 18 16 14 15 15 14 11 13 12 11 10 9 9 8 6 5 4 2 2 1 0 1 1 1 2 4 4 3
3 2 2 2 5 6 6 8 6 8 4 2 3 5 11 12 13 15 15 16 18 17 14 14 15 15 15 12 9 7 7 6 7 9 7 5 4 3 3 2 3 3 3 2 3 2 1 4 4
3 2 3 3 3 2 6 7 10 3 5 5 3 2 11 15 15 14 15 17 18 20 19 19 18 15 15 9 9 9 8 8 6 8 9 6 5 5 4 3 3 3 3 3 2 2 0 1 3
2 1 3 5 8 5 4 5 4 9 10 9 5 2 10 13 14 13 13 13 16 18 18 18 18 16 14 13 10 9 10 9 9 9 10 8 7 5 4 3 3 3 2 3 3 3 2 2 1
0 3 5 3 4 3 4 2 3 2 11 13 9 5 9 12 14 13 15 15 18 17 18 17 17 15 12 12 12 9 8 8 8 8 8 10 6 5 5 4 4 4 3 3 2 2 3 2 1
1 4 2 3 5 2 5 4 4 8 8 13 12 9 8 13 12 19 18 19 19 17 17 18 16 16 15 16 13 10 8 9 9 8 10 10 8 6 6 5 5 5 4 5 4 4 3 4 3
3 2 3 3 7 3 5 5 13 8 12 15 14 12 7 12 18 18 16 17 16 16 18 17 15 17 13 13 9 7 8 7 8 7 8 10 9 8 6 6 6 5 4 4 4 4 4 5 4
6 3 4 6 5 5 6 8 13 13 11 13 14 14 12 12 15 16 17 16 15 16 16 17 18 18 16 13 10 11 10 8 7 6 5 9 9 8 8 7 6 6 5 4 4 4 4 4 5
3 2 2 5 3 6 3 8 13 10 7 9 13 15 13 10 9 10 11 12 13 15 15 15 14 14 13 9 9 7 6 5 5 6 6 9 7 8 9 7 7 6 6 6 5 5 4 5 4
2 1 3 6 1 4 8 8 11 5 9 12 14 15 12 8 6 7 6 3 4 6 8 11 12 12 10 9 9 7 8 7 6 6 7 8 7 8 8 5 4 5 7 7 6 4 6 5 4
2 1 4 8 3 5 10 10 8 3 8 11 15 16 15 11 8 10 7 5 3 4 6 8 11 11 9 8 7 5 5 5 5 5 9 7 6 7 5 6 3 4 7 5 7 7 4 5 5
5 4 7 8 10 8 9 14 4 3 6 11 15 15 15 12 11 11 10 9 7 6 0 7 9 10 10 10 7 4 4 3 4 6 5 6 8 10 11 7 2 5 4 6 8 7 8 6 3
3 7 6 10 11 8 6 7 4 5 1 15 16 17 14 12 12 12 12 13 11 8 6 2 6 8 6 9 8 10 7 7 5 5 4 4 8 10 10 8 6 4 5 3 5 6 5 5 6
3 7 9 10 11 8 5 6 1 5 8 18 17 15 16 11 12 13 13 14 14 13 12 12 12 9 4 4 6 7 6 4 4 5 6 6 5 2 2 6 8 6 2 10 10 6 8 7 6
10 6 5 1 3 5 5 5 1 6 9 14 15 15 16 14 11 13 13 14 15 13 15 16 18 16 15 15 13 11 11 8 7 8 6 6 6 6 7 2 5 7 9 10 10 12 16 9 6
11 6 3 2 3 2 3 7 5 5 7 9 10 13 16 14 11 12 15 15 14 16 15 15 18 18 15 18 16 15 14 13 12 9 7 7 4 5 6 5 4 2 4 8 9 12 13 11 8
3 3 2 4 3 5 10 6 2 2 3 5 5 8 13 14 11 9 15 14 13 14 15 15 16 15 14 15 14 12 12 7 7 7 6 4 4 5 6 6 6 6 4 3 6 7 7 7 7
2 1 2 4 0 4 2 2 5 0 3 6 7 8 13 12 11 12 12 11 11 12 15 14 12 12 13 12 10 11 9 9 7 6 5 2 4 5 6 8 8 7 6 4 2 2 4 6 8
1 3 2 1 4 6 3 5 6 3 5 4 1 5 9 10 9 9 11 9 8 9 8 11 10 11 10 10 9 8 8 8 7 6 8 8 6 6 6 6 6 7 8 7 6 2 2 3 3
3 3 3 1 3 3 5 4 1 3 6 6 4 5 8 8 6 7 7 7 7 9 8 9 10 11 11 11 11 11 10 9 7 7 7 7 7 5 4 5 5 6 6 7 6 6 5 3 3
1 2 2 3 4 4 4 7 3 5 5 6 8 9 8 6 3 2 4 5 7 7 9 5 5 5 6 4 7 4 8 7 8 8 7 7 8 7 6 5 5 5 6 5 6 6 6 6 6
Wind_Direction
329 104 159 207 256 293 350 50 302 296 273 70 128 182 246 306 240 40 102 152 144 150 158 163 158 151 142 133 132 131 131 130 131 130 128 128 125 124 119 114 114 117 117 116 115 116 117 114 112
60 198 164 113 263 263 82 258 5 306 285 296 158 173 231 269 135 114 135 157 154 150 156 161 155 153 145 139 140 141 139 137 137 133 131 131 130 130 126 123 123 124 120 113 111 112 115 121 123
129 11 269 59 142 249 32 195 301 322 162 283 107 273 333 300 99 161 142 153 152 153 156 157 156 154 150 145 147 148 146 143 143 139 138 136 133 129 124 122 123 123 122 123 122 116 118 129 134
25 116 101 256 239 226 265 325 268 301 286 227 232 296 150 19 50 165 144 148 152 156 158 150 153 154 153 149 149 149 149 148 146 143 140 137 133 126 121 121 120 115 109 103 103 114 131 148 170
46 92 111 151 255 276 261 304 323 310 292 277 234 232 321 67 75 133 146 152 154 159 162 157 154 155 156 156 154 154 155 153 149 145 141 137 130 126 125 126 121 114 112 111 112 118 134 169 208
97 316 159 219 254 269 287 332 312 299 295 283 199 216 82 94 107 145 148 157 158 157 163 158 156 158 160 161 159 158 155 152 148 148 146 141 137 136 134 131 128 122 117 124 138 157 180 217 252
111 122 118 158 297 283 333 333 315 328 307 231 352 192 84 117 120 144 145 153 160 160 165 165 168 164 159 160 158 155 151 151 154 156 155 147 143 140 138 137 137 132 122 120 140 168 254 271 289
98 88 145 215 142 65 343 332 306 314 64 116 274 20 57 122 133 135 136 147 163 169 169 170 173 174 173 168 157 156 161 161 163 163 158 151 153 157 156 153 151 156 143 101 88 244 269 293 292
157 114 166 162 194 350 332 340 354 322 152 165 117 59 72 142 143 144 148 155 167 176 181 175 176 175 181 175 170 166 173 174 176 179 178 173 185 181 167 92 158 165 145 106 157 271 289 297 266
98 146 188 198 231 320 315 321 333 332 73 173 124 89 123 150 160 165 170 171 178 178 184 185 183 179 181 179 178 184 184 189 189 190 189 196 184 193 206 156 188 172 152 191 209 309 302 265 309
140 160 178 190 251 280 303 314 327 327 36 343 23 126 156 169 178 176 180 185 183 182 183 191 189 184 188 188 181 187 190 193 190 193 196 199 200 199 209 199 179 177 165 180 224 220 307 355 346
173 160 198 294 150 277 291 321 318 311 285 347 1 294 174 186 190 188 185 185 185 190 193 187 192 190 194 186 193 188 193 194 194 196 195 197 207 207 217 224 206 206 178 169 214 253 275 307 348
187 161 199 269 290 254 281 281 303 278 336 325 323 199 206 199 197 196 199 195 193 198 198 196 193 192 193 191 194 197 201 197 198 198 197 200 207 209 217 229 254 266 243 195 181 202 228 220 117
201 278 294 314 305 284 261 209 267 13 344 331 324 276 237 227 205 190 199 203 200 201 200 199 200 198 191 203 199 200 205 209 209 209 208 203 212 211 213 221 234 249 268 284 255 211 247 266 257
29 298 346 69 355 344 298 248 216 319 341 315 310 293 242 235 214 212 203 202 205 203 198 200 197 188 195 203 203 204 206 210 213 212 207 210 209 221 236 233 243 243 246 274 279 264 233 238 220
30 75 355 19 349 56 325 307 301 342 338 318 317 305 239 231 223 226 215 210 204 202 203 196 201 200 202 191 190 200 188 208 233 226 230 204 212 216 237 251 252 260 257 264 279 270 250 230 228
28 49 1 329 4 352 17 320 318 332 335 322 324 317 293 235 229 228 226 217 206 203 198 200 201 205 200 200 198 203 197 197 213 226 240 225 214 224 228 238 259 262 258 256 266 256 257 228 214
39 15 319 302 1 318 326 295 305 344 355 343 336 330 311 288 256 276 257 246 220 209 201 201 198 200 199 197 201 206 195 198 200 204 226 222 220 219 232 231 231 244 255 251 243 249 235 259 211
151 232 302 305 302 280 315 298 309 348 24 7 1 349 339 349 14 7 2 303 250 236 219 202 198 186 178 194 192 203 210 210 209 200 211 222 212 221 222 231 265 242 240 252 248 252 244 217 190
105 21 9 290 306 290 316 298 289 25 38 24 10 7 0 3 30 32 23 25 30 210 196 194 194 182 183 191 196 201 190 219 220 204 219 202 211 229 219 237 196 258 285 259 252 235 256 250 192
94 33 344 308 316 265 299 282 212 119 62 31 29 19 14 15 29 30 35 36 44 42 91 194 191 175 180 191 188 155 149 196 207 223 235 228 220 222 231 222 296 327 329 284 267 246 219 250 209
115 358 322 315 323 314 4 289 250 337 339 24 19 16 13 13 40 39 35 38 33 30 44 76 179 178 183 186 189 196 207 208 204 197 210 215 232 243 242 256 227 222 182 299 262 244 248 208 236
5 321 308 296 286 296 255 260 35 332 340 7 4 11 3 11 48 40 45 48 42 38 43 50 65 67 73 188 216 204 205 167 124 110 111 99 85 66 236 226 236 233 211 211 229 237 238 218 205
326 298 292 235 266 253 75 348 288 19 340 341 357 4 5 356 47 51 52 54 52 49 56 55 61 53 51 59 54 64 75 81 88 78 78 63 70 58 33 23 193 199 203 210 215 200 227 237 243
8 344 322 227 202 300 50 303 11 360 358 351 350 5 5 4 4 66 61 53 46 56 62 66 66 64 56 63 55 59 59 56 53 51 52 58 53 62 33 32 55 103 200 208 208 211 226 226 227
27 346 319 284 266 311 327 270 67 1 342 3 23 43 38 15 1 43 67 53 50 48 54 56 71 75 74 75 71 63 54 47 49 48 60 51 49 45 30 33 41 36 54 182 217 235 243 251 250
61 105 31 277 240 261 260 251 179 178 338 359 13 35 53 27 15 7 55 61 58 53 54 47 46 58 67 60 61 61 57 65 66 61 61 46 48 43 28 24 22 23 22 21 28 245 259 247 257
357 89 197 101 278 271 235 268 277 264 290 294 296 83 84 70 15 12 11 50 51 30 51 62 46 35 37 58 48 47 41 31 31 32 30 29 21 17 20 22 20 22 18 10 2 360 266 235 251
142 143 77 81 260 272 296 255 269 308 272 241 188 144 121 93 78 8 17 20 28 14 358 43 41 42 44 47 41 28 23 21 26 22 15 16 10 12 11 6 16 27 20 14 3 353 345 272 217
325 153 181 230 204 242 286 274 309 258 288 218 192 169 157 138 140 326 339 5 13 1 326 22 35 22 38 36 70 46 48 10 359 2 358 13 8 7 359 356 5 26 30 21 7 1 347 328 311